Temperature
16 16 16 16 16 16 16 16 16 16 16 16 16 16 16 15 15 15 15 15 15 15 15 15 15 15 15 15 15 15 15 15 15 15 15 15 15 15 15 15 15 15 15
16 16 16 16 16 15 15 16 16 16 15 15 15 15 15 15 15 15 15 15 15 15 15 15 15 15 15 15 15 15 15 15 15 15 15 15 15 15 15 15 15 15 15
16 16 16 16 15 15 15 15 15 15 15 15 15 15 15 15 15 15 15 15 15 15 15 14 15 15 15 15 15 15 15 14 15 15 15 14 14 15 15 14 14 14 14
16 16 15 15 15 15 15 15 15 15 15 15 15 15 15 15 15 15 15 15 15 15 15 15 14 15 15 15 15 15 15 15 15 15 15 14 14 14 14 14 14 14 14
15 15 15 15 15 15 15 15 15 15 15 15 14 14 14 15 15 14 14 14 14 14 14 14 14 14 14 14 14 14 15 15 15 15 14 14 14 14 14 14 14 14 14
15 15 15 15 15 15 15 14 14 14 14 14 14 14 14 14 14 14 14 14 14 14 14 14 14 14 14 14 14 14 14 14 14 14 14 14 14 14 14 14 14 14 14
15 15 15 15 15 15 14 14 14 14 14 14 14 14 14 14 14 14 14 14 14 14 14 14 14 14 14 14 14 14 14 14 14 14 14 14 14 14 13 13 13 13 13
15 15 15 15 15 14 14 14 14 14 14 14 14 14 13 13 13 13 13 13 14 13 13 13 13 13 14 14 14 14 14 14 14 14 14 14 13 13 13 13 13 13 13
15 15 15 15 14 14 14 14 14 14 14 14 14 14 14 13 13 13 13 13 13 13 13 13 13 13 13 13 13 13 13 13 13 13 13 13 13 13 13 13 13 13 13
15 15 14 14 14 14 14 14 14 14 14 14 14 14 14 14 13 13 13 13 13 13 13 13 13 13 13 13 13 13 13 13 13 13 13 13 13 13 13 13 13 13 13
15 14 14 14 14 14 14 14 14 14 14 14 14 14 14 14 14 13 13 13 13 13 13 13 13 13 13 13 13 13 13 13 13 13 13 12 12 12 12 12 12 12 12
14 14 14 14 14 14 14 14 14 14 14 14 14 14 14 14 14 14 13 13 13 13 13 13 13 12 13 13 13 13 13 13 13 13 12 12 12 12 12 12 12 12 12
14 14 14 14 14 14 14 14 14 14 13 13 13 13 13 13 13 13 13 13 13 12 12 12 12 12 12 12 12 12 12 12 12 12 12 12 12 12 12 12 12 11 11
14 14 14 14 14 14 14 14 14 13 13 13 13 13 13 13 13 13 13 13 13 12 12 12 12 12 12 12 12 12 12 12 12 12 12 12 12 12 12 12 12 11 11
14 14 14 14 14 14 14 14 13 13 13 13 13 13 13 13 13 13 13 13 13 13 12 12 12 12 12 12 12 12 12 12 12 12 12 12 11 11 11 11 11 11 11
14 14 14 14 14 14 13 13 13 13 13 13 13 13 13 13 13 13 13 13 13 13 12 12 12 12 12 12 12 12 12 12 12 12 12 11 11 11 11 11 11 11 11
14 14 14 14 14 13 13 13 13 13 13 13 13 13 13 13 13 13 12 12 12 12 12 12 12 12 12 12 12 11 11 11 11 11 11 11 11 11 11 11 11 11 11
14 14 14 14 13 13 13 13 13 13 13 13 13 13 13 13 12 12 12 12 12 12 12 12 12 11 11 11 11 11 11 11 11 11 11 11 11 11 11 10 10 10 10
14 13 13 13 13 13 13 13 13 13 13 12 12 12 12 12 12 12 12 12 12 12 12 12 12 11 11 11 11 11 11 11 11 11 11 10 10 10 10 10 10 10 10
14 13 13 13 13 13 13 13 13 12 12 12 12 12 12 12 12 12 12 12 12 12 11 11 11 11 11 11 11 11 11 11 10 10 10 10 10 10 10 10 10 10 10
13 13 13 13 13 13 13 12 12 12 12 12 12 12 12 12 12 12 12 11 11 11 11 11 11 11 11 11 11 10 10 10 10 10 10 10 10 9 9 9 9 9 9
13 13 13 13 13 13 12 12 12 12 12 12 12 11 11 11 11 11 11 11 11 11 11 11 11 11 11 10 10 10 10 10 10 10 10 9 9 9 9 9 9 9 9
13 13 13 13 13 13 12 12 12 12 12 12 12 11 11 11 11 11 11 11 11 11 11 11 11 11 10 10 10 10 10 10 9 9 9 9 9 9 9 9 9 9 9
13 13 13 13 13 13 12 12 12 12 11 11 11 11 11 11 11 11 11 11 11 11 11 10 10 10 10 10 10 9 9 9 9 9 9 9 9 9 9 9 9 9 8
13 13 13 13 12 12 12 12 12 11 11 11 11 11 11 11 11 10 10 10 10 10 10 10 10 10 10 10 9 9 9 9 9 9 8 8 8 8 8 8 8 8 8
13 13 12 12 12 12 12 12 12 11 11 11 11 11 11 11 10 10 10 10 10 10 10 10 9 9 9 9 9 9 9 8 8 8 8 8 8 8 8 8 8 8 8
Wind_Speed
2 3 3 4 5 6 6 5 6 6 6 7 7 7 6 7 7 7 7 9 9 9 9 9 9 8 8 8 8 8 7 7 7 6 6 7 7 7 7 7 6 6 5
4 4 3 4 5 6 7 6 6 5 5 5 5 6 6 7 7 7 7 8 8 9 8 8 8 8 8 8 8 8 8 7 7 7 6 7 7 7 7 7 7 7 7
6 5 4 3 4 7 8 7 6 6 5 5 5 4 5 5 6 6 6 7 7 8 8 8 8 8 8 7 7 7 7 8 7 7 7 7 7 7 7 7 7 7 7
8 6 4 3 5 6 6 4 4 4 4 4 3 3 4 4 5 5 6 7 7 7 8 8 7 7 6 6 6 6 7 7 7 7 7 7 7 7 7 7 7 6 7
8 7 4 3 5 5 3 4 4 4 4 4 3 3 3 3 3 5 5 5 7 7 7 7 7 7 7 6 6 6 6 6 7 7 7 6 6 7 7 7 6 6 6
7 7 5 4 5 4 3 3 4 4 3 3 4 4 3 3 3 3 3 4 5 6 6 6 6 6 7 7 6 6 6 6 6 6 7 6 6 7 7 6 6 6 7
7 6 4 4 4 4 3 4 3 4 3 2 4 4 4 4 4 3 2 3 3 4 5 6 6 6 6 7 7 6 6 6 6 6 7 7 6 6 6 6 6 7 7
6 6 4 3 3 4 4 4 4 3 1 2 3 3 2 3 3 3 2 2 2 3 3 4 5 5 5 5 6 7 5 6 6 7 7 6 7 6 6 6 6 6 5
4 6 5 4 3 3 4 3 4 4 2 0 1 3 3 2 1 2 2 1 1 1 1 2 3 4 4 4 4 5 5 5 5 5 6 6 6 6 6 5 4 4 4
3 5 5 5 4 3 4 3 3 2 3 2 0 1 2 4 3 0 2 2 1 1 1 1 2 3 3 3 3 3 4 4 4 4 5 5 5 5 5 4 4 3 3
1 2 4 4 4 3 3 3 3 3 3 3 2 1 1 1 2 3 1 2 2 1 0 1 2 2 3 3 2 2 3 4 3 3 3 3 3 3 3 3 3 2 2
0 1 2 3 2 2 2 3 3 3 3 2 2 2 3 2 2 3 3 2 1 2 1 0 1 2 3 3 2 3 3 3 2 2 2 2 2 2 2 1 2 1 1
2 3 2 2 2 2 2 2 2 2 2 2 2 2 2 3 3 3 4 2 1 2 1 1 1 2 3 3 3 3 2 2 2 2 2 1 1 1 0 0 0 0 0
3 3 3 3 3 3 3 3 2 2 2 2 2 2 2 2 3 3 4 4 2 1 1 2 1 2 3 4 3 3 2 2 2 2 1 1 0 0 0 1 1 0 0
3 3 4 3 3 3 3 3 2 2 1 2 2 2 2 1 2 2 3 4 5 3 2 3 2 2 3 4 4 4 3 2 2 2 1 1 1 1 1 1 1 1 2
3 4 4 4 3 3 2 2 1 1 1 1 1 1 1 1 1 2 2 2 3 5 3 3 3 2 3 3 4 4 4 2 2 2 2 2 2 1 1 1 2 1 1
4 4 4 4 4 4 3 3 3 2 2 1 0 1 1 1 1 1 2 2 3 3 3 2 1 1 2 1 2 3 3 2 2 2 2 2 2 1 1 1 1 1 1
4 4 4 4 4 4 4 4 4 3 3 2 2 1 1 1 1 1 2 2 2 3 4 3 1 1 1 2 2 2 2 1 2 2 2 2 2 2 2 1 1 1 1
4 3 4 4 4 5 4 5 5 4 3 3 3 2 2 2 2 2 2 2 2 2 3 3 2 1 1 1 1 0 1 1 1 2 2 3 3 3 2 2 2 1 1
4 4 4 4 4 4 4 5 5 4 3 3 3 3 3 3 4 4 3 3 3 3 3 3 2 1 1 0 1 1 0 1 1 1 2 2 3 3 3 3 2 2 2
4 4 3 3 3 3 4 5 5 5 4 3 3 3 3 4 5 4 3 4 4 3 3 3 2 1 1 1 2 2 2 1 1 1 0 2 2 2 3 4 4 4 3
4 3 4 4 3 3 5 6 6 5 4 5 4 4 3 3 4 5 5 6 6 6 6 4 3 3 4 3 3 2 2 1 2 1 1 2 1 2 4 5 6 6 6
4 4 4 4 4 4 5 6 7 5 4 5 5 4 3 3 4 3 3 4 5 7 8 7 6 6 5 6 5 4 3 3 3 3 2 2 1 3 5 7 7 7 8
4 4 4 4 3 4 5 6 6 5 4 4 5 5 5 4 4 4 3 2 2 4 5 5 6 6 6 6 7 6 5 3 1 1 2 2 2 3 4 6 8 8 8
4 4 3 4 4 4 4 5 4 3 3 3 3 3 4 4 5 5 4 4 3 3 4 5 6 6 6 6 6 4 3 2 1 2 2 2 2 2 2 3 7 8 9
4 4 3 3 4 3 3 4 5 3 3 3 2 2 3 4 5 6 5 5 5 4 2 2 2 2 3 4 6 6 5 4 2 2 2 2 2 1 2 2 3 5 7
Wind_Direction
94 91 88 88 85 83 84 78 80 81 80 80 86 91 88 84 81 78 81 86 94 104 106 104 101 99 95 91 87 86 84 85 85 87 89 91 89 88 88 87 86 85 81
104 98 87 85 84 87 90 91 88 85 81 84 82 89 92 90 85 81 78 79 83 91 99 100 98 99 96 93 89 86 83 83 89 90 92 93 92 90 87 85 83 83 79
105 102 98 90 93 96 94 91 84 83 79 78 75 79 91 93 92 84 79 76 75 80 88 90 88 91 93 90 86 84 83 81 82 85 88 94 95 93 89 87 85 80 75
110 105 101 95 99 98 97 95 88 84 74 73 72 67 72 83 90 90 81 76 73 74 77 81 79 84 85 87 88 86 82 81 80 84 89 93 98 97 95 91 87 81 77
115 112 110 105 101 94 91 103 95 100 95 81 77 68 60 66 76 90 83 80 79 79 79 77 78 77 76 77 80 84 82 83 84 85 93 96 101 101 97 92 89 87 82
116 114 113 110 107 99 86 94 97 90 100 101 90 69 48 50 64 80 90 86 85 85 83 78 74 71 71 73 71 78 82 83 85 84 90 95 105 104 100 94 91 88 83
122 119 118 113 115 115 119 117 107 92 77 89 84 56 26 29 44 49 67 80 82 88 90 87 84 78 70 65 64 75 79 81 87 91 92 93 100 112 105 100 95 87 82
126 132 132 138 135 123 115 114 113 104 96 92 111 99 43 3 3 21 33 73 77 90 98 98 94 90 81 74 63 65 70 82 89 90 91 93 89 93 95 91 87 82 79
126 135 141 143 146 141 144 145 140 136 150 25 115 135 139 193 292 341 358 21 47 71 88 110 108 109 103 88 77 68 70 75 91 94 90 87 86 87 88 84 78 74 76
128 138 143 146 150 149 156 169 156 156 151 168 231 143 159 155 154 204 329 334 352 78 90 113 122 128 126 111 91 73 74 73 83 90 90 89 85 85 83 81 74 74 77
132 142 142 144 151 157 167 170 157 157 161 166 175 159 125 114 131 146 207 295 329 316 312 156 145 135 137 132 118 99 89 88 83 85 89 91 92 94 86 79 73 61 80
241 190 152 145 153 159 172 176 170 170 177 173 174 169 166 162 176 156 171 207 248 291 311 347 157 167 161 158 152 131 120 105 98 90 83 70 98 109 94 71 60 50 79
212 215 171 161 163 173 171 159 156 167 175 177 185 192 193 196 173 157 153 172 196 275 314 316 259 204 177 171 177 160 143 128 115 108 94 74 85 104 114 71 14 340 104
210 203 182 172 172 170 167 154 153 184 172 189 204 197 189 209 180 167 161 154 144 313 310 272 286 225 197 182 189 171 160 151 140 139 129 109 127 345 290 255 240 325 79
200 191 183 176 171 169 170 164 174 205 188 206 220 213 204 220 183 175 163 161 156 175 240 250 252 242 208 191 189 172 175 182 186 178 182 199 196 210 230 245 205 114 70
197 187 186 185 182 178 166 161 177 194 156 188 179 171 228 218 175 166 166 164 156 162 197 238 231 228 197 193 191 181 194 199 210 217 215 195 186 171 184 175 151 135 97
194 191 190 189 185 185 180 169 183 179 168 193 192 159 202 165 152 157 150 145 151 150 173 237 231 210 173 175 173 189 200 200 220 227 213 195 194 181 165 180 195 182 149
193 190 184 185 188 187 183 178 184 182 172 185 211 185 206 162 159 172 158 163 165 164 163 186 212 196 198 188 168 166 191 211 233 238 222 207 202 189 190 197 209 194 193
186 190 183 189 194 191 191 190 186 184 182 194 200 191 204 175 195 200 177 174 178 171 157 162 190 200 217 156 119 153 175 240 244 240 240 238 230 229 225 225 220 223 233
181 186 191 195 199 199 196 192 186 186 189 198 201 197 193 187 203 204 194 188 175 156 144 148 164 187 199 170 128 177 270 285 267 248 239 241 233 227 237 240 238 238 236
191 189 184 194 201 201 206 197 190 191 191 203 216 214 212 201 202 200 199 189 174 168 161 161 171 169 183 174 200 204 205 244 282 228 231 258 236 238 252 245 244 240 238
193 187 191 193 198 214 213 200 188 189 192 199 213 224 226 221 219 211 204 195 184 181 183 180 186 196 208 205 194 189 175 164 269 243 177 257 206 238 253 245 243 237 237
185 188 195 189 201 218 212 205 197 189 194 204 207 207 223 227 213 210 215 214 218 211 196 184 190 207 204 200 186 188 195 197 225 221 166 238 228 239 254 252 247 240 240
183 190 197 200 204 224 213 206 203 198 203 216 216 209 213 227 219 201 193 200 228 226 215 203 202 213 207 196 189 189 194 201 258 244 163 212 237 249 265 256 247 242 245
189 195 196 196 201 232 223 211 198 189 201 221 226 214 210 216 216 194 184 201 234 260 242 218 216 220 209 200 181 151 153 158 250 257 198 189 233 260 263 258 252 248 245
197 193 196 202 205 223 227 215 198 188 200 223 236 232 222 216 213 191 188 195 214 238 229 210 214 233 218 205 188 179 180 185 211 247 221 187 214 209 270 265 254 255 250
Height
1534 1534 1534 1535 1535 1535 1536 1536 1536 1536 1536 1537 1537 1537 1537 1537 1538 1537 1537 1537 1537 1537 1537 1536 1536 1536 1535 1535 1535 1534 1534 1534 1534 1534 1534 1534 1534 1534 1534 1534 1535 1534 1534
1535 1535 1535 1535 1535 1536 1536 1536 1537 1537 1537 1537 1537 1538 1538 1538 1538 1538 1538 1538 1538 1538 1538 1537 1537 1537 1536 1536 1536 1535 1535 1534 1534 1534 1534 1534 1534 1534 1534 1534 1534 1534 1534
1536 1535 1535 1535 1536 1536 1537 1537 1537 1537 1537 1538 1538 1538 1539 1539 1539 1539 1539 1539 1539 1538 1538 1538 1538 1538 1537 1537 1536 1536 1535 1535 1534 1534 1534 1534 1534 1534 1534 1534 1534 1534 1534
1536 1536 1536 1536 1536 1536 1537 1537 1537 1537 1538 1538 1538 1539 1539 1539 1539 1540 1540 1539 1539 1539 1539 1539 1538 1538 1538 1537 1537 1536 1536 1535 1535 1535 1534 1534 1534 1534 1534 1534 1534 1534 1534
1536 1536 1536 1536 1536 1536 1537 1537 1537 1537 1538 1538 1539 1539 1539 1540 1540 1540 1540 1540 1540 1540 1539 1539 1539 1538 1538 1537 1537 1536 1536 1536 1535 1535 1534 1534 1534 1534 1534 1534 1534 1534 1534
1536 1536 1536 1536 1536 1536 1537 1537 1538 1538 1538 1539 1539 1539 1540 1540 1541 1541 1541 1540 1540 1540 1540 1540 1539 1539 1538 1538 1537 1537 1536 1536 1536 1535 1534 1534 1534 1534 1534 1534 1534 1534 1533
1536 1536 1536 1536 1536 1536 1537 1537 1538 1538 1538 1539 1539 1539 1540 1541 1541 1541 1541 1541 1541 1541 1540 1540 1540 1539 1538 1538 1537 1537 1537 1536 1536 1535 1535 1534 1534 1534 1534 1534 1534 1533 1533
1536 1536 1536 1536 1536 1536 1537 1537 1537 1538 1538 1539 1539 1539 1540 1542 1541 1541 1541 1541 1541 1541 1540 1540 1540 1539 1539 1538 1538 1537 1537 1536 1536 1536 1535 1535 1534 1534 1533 1533 1533 1533 1533
1536 1536 1535 1535 1535 1536 1536 1536 1537 1537 1538 1538 1539 1540 1540 1540 1541 1542 1541 1541 1541 1540 1540 1540 1539 1539 1539 1538 1538 1538 1537 1537 1536 1536 1535 1534 1534 1534 1534 1533 1533 1533 1532
1535 1535 1535 1535 1535 1535 1536 1536 1537 1537 1537 1537 1538 1539 1539 1539 1540 1540 1541 1540 1540 1540 1540 1539 1539 1539 1538 1538 1538 1538 1537 1537 1536 1536 1535 1535 1534 1534 1534 1533 1533 1532 1532
1534 1534 1534 1534 1534 1534 1535 1535 1535 1536 1536 1537 1537 1537 1537 1538 1538 1538 1539 1539 1539 1539 1539 1539 1539 1538 1538 1538 1538 1537 1537 1537 1536 1536 1535 1535 1534 1534 1533 1533 1532 1532 1531
1533 1533 1533 1533 1533 1534 1534 1534 1534 1535 1535 1535 1536 1536 1536 1536 1536 1537 1537 1537 1538 1538 1538 1538 1538 1538 1537 1537 1537 1537 1537 1536 1536 1535 1535 1534 1533 1533 1532 1532 1532 1531 1530
1531 1531 1532 1532 1532 1532 1533 1533 1533 1533 1534 1534 1534 1534 1535 1535 1535 1536 1536 1536 1536 1537 1537 1537 1537 1537 1537 1537 1536 1536 1536 1535 1535 1534 1534 1533 1533 1532 1532 1531 1531 1530 1530
1530 1530 1530 1530 1530 1531 1531 1531 1532 1532 1532 1532 1532 1533 1533 1533 1533 1534 1534 1535 1535 1536 1536 1536 1536 1536 1536 1536 1535 1535 1535 1534 1534 1533 1533 1532 1532 1531 1531 1530 1530 1529 1529
1528 1529 1529 1529 1529 1529 1529 1530 1530 1530 1531 1531 1531 1531 1531 1531 1531 1532 1532 1533 1534 1534 1534 1534 1535 1534 1534 1534 1534 1534 1534 1533 1533 1532 1532 1531 1530 1530 1529 1529 1528 1528 1528
1527 1527 1527 1527 1527 1527 1527 1528 1528 1528 1529 1529 1529 1529 1529 1529 1529 1530 1530 1531 1531 1532 1532 1532 1533 1533 1533 1533 1533 1532 1532 1532 1531 1531 1530 1529 1529 1528 1528 1527 1527 1527 1526
1524 1525 1525 1525 1525 1525 1525 1526 1526 1527 1527 1527 1527 1527 1527 1527 1527 1527 1527 1528 1529 1530 1530 1530 1531 1531 1531 1531 1531 1531 1531 1530 1530 1529 1528 1528 1527 1527 1526 1526 1526 1525 1525
1522 1522 1522 1522 1523 1523 1524 1524 1524 1525 1525 1525 1525 1525 1525 1525 1525 1525 1525 1525 1526 1527 1527 1527 1528 1528 1529 1529 1529 1529 1529 1528 1528 1527 1527 1526 1526 1525 1525 1524 1524 1524 1523
1519 1520 1520 1520 1521 1521 1522 1522 1522 1522 1523 1523 1523 1522 1522 1522 1522 1522 1522 1523 1523 1524 1525 1525 1525 1526 1526 1527 1526 1526 1526 1526 1526 1525 1525 1524 1524 1524 1523 1523 1523 1522 1522
1517 1517 1517 1518 1518 1519 1519 1520 1520 1520 1520 1520 1520 1520 1520 1520 1520 1520 1520 1520 1521 1521 1522 1522 1523 1523 1523 1524 1524 1524 1523 1524 1523 1523 1523 1522 1522 1522 1522 1521 1521 1520 1520
1514 1515 1515 1515 1516 1516 1516 1517 1517 1517 1517 1517 1518 1518 1518 1518 1517 1517 1517 1518 1518 1518 1519 1519 1520 1520 1520 1521 1521 1521 1521 1521 1521 1521 1520 1520 1520 1520 1520 1519 1519 1518 1518
1511 1512 1512 1512 1513 1513 1514 1514 1514 1514 1514 1514 1514 1514 1515 1515 1515 1515 1515 1515 1516 1516 1516 1516 1517 1517 1517 1518 1518 1518 1518 1518 1517 1518 1518 1518 1518 1517 1517 1517 1517 1516 1515
1508 1509 1509 1509 1509 1510 1510 1511 1511 1511 1511 1511 1511 1511 1511 1512 1512 1512 1512 1512 1512 1513 1513 1514 1513 1514 1514 1515 1515 1515 1515 1515 1515 1515 1515 1514 1515 1514 1515 1514 1514 1514 1513
1505 1505 1505 1506 1506 1506 1507 1507 1507 1508 1507 1507 1508 1508 1508 1508 1508 1509 1509 1509 1509 1509 1510 1510 1510 1511 1511 1512 1512 1512 1512 1512 1512 1512 1512 1512 1511 1511 1511 1511 1511 1511 1510
1501 1501 1501 1502 1502 1502 1503 1503 1504 1504 1503 1503 1504 1504 1504 1504 1505 1505 1506 1505 1506 1506 1506 1507 1507 1508 1508 1508 1509 1509 1508 1508 1508 1508 1509 1508 1508 1507 1507 1507 1508 1507 1507
1497 1497 1498 1498 1498 1498 1499 1499 1500 1499 1499 1500 1500 1500 1500 1501 1501 1501 1501 1501 1501 1502 1503 1503 1503 1504 1504 1504 1505 1505 1505 1505 1504 1505 1505 1505 1504 1504 1503 1503 1503 1503 1503